When you browse on this site, cookies collect data to enhance your experience and personalize the content and advertising you see.
Visit our Privacy Policy to learn more. By continuing to use the site, you agree to this use of cookies and data.
  • In Romania
  • List of Countries
  • For 7 days
  • Water Temperature
  • Satellite Maps
  • Weather Map
  • Weather Widgets
  • user-avatar
    Login

    Hourly Weather Ostrozhki

    Today, 21 March, Thursday

    Time Temperature Precipitation Wind Pressure Humidity
    00:00 -1°C° 0.2 mm 3 mps 745 mmHg 85%
    01:00 -1°C° 0.2 mm 3 mps 744 mmHg 87%
    02:00 -2°C° 0 mm 3 mps 744 mmHg 92%
    03:00 -1°C° 0.4 mm 3 mps 743 mmHg 92%
    04:00 -1°C° 0.4 mm 3 mps 743 mmHg 92%
    05:00 -1°C° 0.4 mm 3 mps 743 mmHg 92%
    06:00 0°C° 0 mm 3 mps 743 mmHg 91%
    07:00 0°C° 0 mm 3 mps 743 mmHg 89%
    08:00 0°C° 0 mm 4 mps 744 mmHg 87%
    09:00 0°C° 0 mm 4 mps 744 mmHg 85%
    10:00 0°C° 0 mm 4 mps 744 mmHg 84%
    11:00 +1°C° 0 mm 4 mps 744 mmHg 83%
    12:00 +3°C° 0 mm 4 mps 744 mmHg 80%
    13:00 +3°C° 0 mm 4 mps 744 mmHg 77%
    14:00 +4°C° 0 mm 4 mps 745 mmHg 73%
    15:00 +4°C° 0 mm 3 mps 744 mmHg 75%
    16:00 +4°C° 0 mm 3 mps 744 mmHg 77%
    17:00 +5°C° 0 mm 2 mps 744 mmHg 80%
    18:00 +3°C° 0 mm 2 mps 744 mmHg 83%
    19:00 +2°C° 0 mm 2 mps 744 mmHg 86%
    20:00 +1°C° 0 mm 2 mps 744 mmHg 90%
    21:00 +1°C° 0 mm 2 mps 743 mmHg 90%
    22:00 +2°C° 0 mm 2 mps 743 mmHg 90%
    23:00 +2°C° 0 mm 2 mps 742 mmHg 90%

    Tomorrow, 22 March, Friday

    Time Temperature Precipitation Wind Pressure Humidity
    00:00 +1°C° 0.2 mm 3 mps 742 mmHg 91%
    01:00 +1°C° 0.2 mm 3 mps 741 mmHg 91%
    02:00 +1°C° 0.2 mm 4 mps 740 mmHg 92%
    03:00 +1°C° 0.7 mm 4 mps 739 mmHg 93%
    04:00 +1°C° 0.7 mm 4 mps 738 mmHg 94%
    05:00 +3°C° 0.7 mm 4 mps 737 mmHg 95%
    06:00 +1°C° 0.9 mm 5 mps 737 mmHg 90%
    07:00 +1°C° 0.9 mm 6 mps 738 mmHg 86%
    08:00 0°C° 0.9 mm 7 mps 738 mmHg 82%
    09:00 -1°C° 0.1 mm 7 mps 739 mmHg 76%
    10:00 -1°C° 0.1 mm 7 mps 740 mmHg 71%
    11:00 -1°C° 0.1 mm 8 mps 740 mmHg 66%
    12:00 -2°C° 0.1 mm 7 mps 741 mmHg 68%
    13:00 -2°C° 0.1 mm 7 mps 741 mmHg 70%
    14:00 -2°C° 0.1 mm 7 mps 742 mmHg 72%
    15:00 -2°C° 0.1 mm 7 mps 742 mmHg 75%
    16:00 -3°C° 0.1 mm 7 mps 742 mmHg 77%
    17:00 -3°C° 0.1 mm 7 mps 743 mmHg 79%
    18:00 -3°C° 0.1 mm 7 mps 743 mmHg 80%
    19:00 -3°C° 0.1 mm 7 mps 744 mmHg 80%
    20:00 -2°C° 0.1 mm 7 mps 744 mmHg 80%
    21:00 -2°C° 0.1 mm 6 mps 745 mmHg 81%
    22:00 -2°C° 0.1 mm 6 mps 745 mmHg 81%
    23:00 -2°C° 0.1 mm 6 mps 746 mmHg 82%

    Day after tomorrow, 23 March, Saturday

    Time Temperature Precipitation Wind Pressure Humidity
    00:00 -1°C° 0 mm 5 mps 746 mmHg 83%
    01:00 -1°C° 0 mm 5 mps 746 mmHg 84%
    02:00 -2°C° 0 mm 5 mps 747 mmHg 84%
    03:00 -2°C° 0 mm 4 mps 747 mmHg 86%
    04:00 -2°C° 0 mm 4 mps 748 mmHg 87%
    05:00 -2°C° 0 mm 3 mps 748 mmHg 89%
    06:00 -1°C° 0 mm 3 mps 748 mmHg 88%
    07:00 -1°C° 0 mm 3 mps 748 mmHg 86%
    08:00 -1°C° 0 mm 3 mps 749 mmHg 85%
    09:00 +1°C° 0 mm 2 mps 749 mmHg 83%
    10:00 +2°C° 0 mm 1 mps 749 mmHg 80%
    11:00 +3°C° 0 mm 1 mps 749 mmHg 77%
    12:00 +3°C° 0 mm 1 mps 748 mmHg 75%
    13:00 +4°C° 0 mm 1 mps 748 mmHg 73%
    14:00 +5°C° 0 mm 1 mps 747 mmHg 70%
    15:00 +4°C° 0 mm 1 mps 747 mmHg 73%
    16:00 +3°C° 0 mm 2 mps 746 mmHg 75%
    17:00 +3°C° 0 mm 2 mps 746 mmHg 78%
    18:00 +2°C° 0 mm 2 mps 745 mmHg 81%
    19:00 0°C° 0 mm 3 mps 745 mmHg 84%
    20:00 -1°C° 0 mm 3 mps 744 mmHg 86%
    21:00 0°C° 0.1 mm 3 mps 744 mmHg 84%
    22:00 0°C° 0.1 mm 3 mps 743 mmHg 81%
    23:00 -1°C° 0.1 mm 4 mps 742 mmHg 78%

    24 March, Sunday

    Time Temperature Precipitation Wind Pressure Humidity
    00:00 -1°C° 1.1 mm 4 mps 742 mmHg 80%
    01:00 -1°C° 1.1 mm 4 mps 741 mmHg 82%
    02:00 0°C° 1.1 mm 3 mps 741 mmHg 84%
    03:00 0°C° 0.2 mm 3 mps 740 mmHg 87%
    04:00 +1°C° 0.2 mm 3 mps 740 mmHg 90%
    05:00 +1°C° 0.2 mm 3 mps 740 mmHg 94%
    06:00 +1°C° 0 mm 3 mps 740 mmHg 93%
    07:00 +1°C° 0 mm 3 mps 740 mmHg 92%
    08:00 +1°C° 0 mm 3 mps 740 mmHg 91%
    09:00 +1°C° 0.1 mm 4 mps 740 mmHg 83%
    10:00 +2°C° 0.1 mm 5 mps 740 mmHg 75%
    11:00 +2°C° 0.1 mm 5 mps 740 mmHg 67%
    12:00 +2°C° 0 mm 5 mps 740 mmHg 64%
    13:00 +2°C° 0 mm 6 mps 740 mmHg 60%
    14:00 +3°C° 0 mm 6 mps 740 mmHg 57%
    15:00 +2°C° 0.1 mm 5 mps 740 mmHg 59%
    16:00 +1°C° 0.1 mm 4 mps 740 mmHg 62%
    17:00 0°C° 0.1 mm 4 mps 740 mmHg 64%
    18:00 0°C° 0 mm 3 mps 740 mmHg 68%
    19:00 -1°C° 0 mm 3 mps 741 mmHg 73%
    20:00 -2°C° 0 mm 2 mps 741 mmHg 78%
    21:00 -3°C° 0 mm 2 mps 741 mmHg 79%
    22:00 -3°C° 0 mm 2 mps 741 mmHg 79%
    23:00 -4°C° 0 mm 2 mps 741 mmHg 80%

    25 March, Monday

    Time Temperature Precipitation Wind Pressure Humidity
    00:00 -4°C° 0 mm 2 mps 741 mmHg 81%
    01:00 -4°C° 0 mm 2 mps 740 mmHg 81%
    02:00 -4°C° 0 mm 2 mps 740 mmHg 82%
    03:00 -4°C° 0 mm 2 mps 740 mmHg 83%
    04:00 -5°C° 0 mm 2 mps 740 mmHg 85%
    05:00 -5°C° 0 mm 2 mps 740 mmHg 87%
    06:00 -4°C° 0 mm 2 mps 740 mmHg 82%
    07:00 -3°C° 0 mm 2 mps 740 mmHg 77%
    08:00 -2°C° 0 mm 2 mps 740 mmHg 73%
    09:00 +1°C° 0 mm 2 mps 739 mmHg 69%
    10:00 +1°C° 0 mm 3 mps 739 mmHg 64%
    11:00 +2°C° 0 mm 3 mps 739 mmHg 60%
    12:00 +3°C° 0.1 mm 3 mps 738 mmHg 60%
    13:00 +3°C° 0.1 mm 3 mps 738 mmHg 60%
    14:00 +3°C° 0.1 mm 3 mps 737 mmHg 60%
    15:00 +3°C° 0.2 mm 3 mps 737 mmHg 63%
    16:00 +3°C° 0.2 mm 2 mps 736 mmHg 66%
    17:00 +4°C° 0.2 mm 1 mps 736 mmHg 69%
    18:00 +3°C° 0 mm 1 mps 736 mmHg 72%
    19:00 +2°C° 0 mm 1 mps 735 mmHg 76%
    20:00 +1°C° 0 mm 1 mps 735 mmHg 79%
    21:00 0°C° 0 mm 1 mps 735 mmHg 81%
    22:00 0°C° 0 mm 1 mps 735 mmHg 83%
    23:00 -1°C° 0 mm 1 mps 734 mmHg 85%

    26 March, Tuesday

    Time Temperature Precipitation Wind Pressure Humidity
    00:00 -1°C° 0 mm 1 mps 734 mmHg 86%
    01:00 0°C° 0 mm 1 mps 734 mmHg 87%
    02:00 -2°C° 0 mm 2 mps 734 mmHg 87%
    03:00 -2°C° 0.4 mm 2 mps 734 mmHg 89%
    04:00 -2°C° 0.4 mm 2 mps 734 mmHg 90%
    05:00 -2°C° 0.4 mm 2 mps 734 mmHg 91%
    06:00 -2°C° 0.3 mm 3 mps 735 mmHg 90%
    07:00 -1°C° 0.3 mm 3 mps 735 mmHg 89%
    08:00 -2°C° 0.3 mm 4 mps 735 mmHg 87%
    09:00 -1°C° 0.2 mm 4 mps 736 mmHg 85%
    10:00 -1°C° 0.2 mm 4 mps 736 mmHg 84%
    11:00 0°C° 0.2 mm 5 mps 736 mmHg 82%
    12:00 0°C° 0.3 mm 5 mps 737 mmHg 82%
    13:00 0°C° 0.3 mm 5 mps 737 mmHg 83%
    14:00 0°C° 0.3 mm 5 mps 737 mmHg 83%
    15:00 -1°C° 0.3 mm 5 mps 738 mmHg 83%
    16:00 -1°C° 0.3 mm 5 mps 738 mmHg 84%
    17:00 -1°C° 0.3 mm 4 mps 739 mmHg 84%
    18:00 -1°C° 0 mm 4 mps 739 mmHg 84%
    19:00 -1°C° 0 mm 4 mps 740 mmHg 85%
    20:00 -2°C° 0 mm 4 mps 741 mmHg 85%
    21:00 -2°C° 0 mm 4 mps 741 mmHg 86%
    22:00 -3°C° 0 mm 4 mps 741 mmHg 88%
    23:00 -3°C° 0 mm 4 mps 742 mmHg 89%
    Show more